Location: Ago
(8.4667°N, 4.4833°E)
Time: 23:05:33
(UTC+00:00)

Cosmos 1939 Rocket - Pass Details

Date: 18 September 2020
Orbit: 531 x 585 km, 97.4° (Epoch: 20 October)

Event Time Altitude Azimuth Distance (km) Brightness Sun altitude
Rises 17:56:38 0° 156° (SSE) 2,747 6.1 -4.9°
Reaches altitude 10° 17:58:51 10° 148° (SSE) 1,859 5.2 -5.4°
Maximum altitude 18:02:38 41° 78° (ENE) 835 3.3 -6.4°
Drops below altitude 10° 18:06:30 10° 7° (N) 1,883 5.5 -7.3°
Sets 18:08:44 0° 0° (N) 2,787 6.5 -7.9°
